Weather in Borki

Russia / Pskov Oblast     56°00′00″N   29°58′05″E
temp.,
°C
wind,
m/s
gust,
m/s
humid.,
%
clouds,
%
prec.,
mm/h
press.,
hPa
HPBL,
m
21 april, wed
wed2100:00+5nne1297100 0.3 1013260
03:00+5n1196100 0.4 1011104
06:00+5nw2496100 0.3 1008294
09:00+5wnw239296 0.9 1008583
12:00+6wnw3485100 0.2 1007718
15:00+10wsw355792 0.4 10051641
18:00+10sw3559100 0.1 10051142
21:00+7sw3891100 1.1 1006519
22 april, thu
thu2200:00+6s399410 0.8 1006252
03:00+4ssw2894100 0.8 1007190
06:00+4sw3892100 0.0 1007200
09:00+8sw36695 0.0 1008395
12:00+13s47512 0.0 10081367
15:00+13ssw485988 0.8 10071545
18:00+11sw477499 1.8 1007970
21:00+6sw2687100 2.1 1009253
23 april, fri
fri2300:00+5ssw31088100 0.0 1009370
03:00+3ssw3887100 0.0 1009321
06:00+3ssw4108748 0.0 1009566
09:00+5sw596867 0.0 10101317
12:00+5sw5864100 0.1 10101498
15:00+6sw4758100 0.2 10111518
18:00+7sw375837 0.3 10111433
21:00+2wsw24785 0.4 101177
24 april, sat
sat2400:000wsw25875 0.0 101195
03:00−1w25955 0.0 1011113
06:00−1wsw269710 0.0 1011175
09:00+3wsw356687 0.0 10101130
12:00+4wsw4656100 0.1 10101388
15:00+4wsw5778100 0.4 1009997
18:00+4w487498 0.5 10091145
21:00+2wsw4108980 0.8 1009790
25 april, sun
sun2500:00+1wsw51097100 0.3 1008763
03:00+1wsw5996100 0.6 1007815
06:00+1wsw3897100 0.5 1007402
09:00+1wsw4892100 1.5 1007739
12:00+3wsw567599 0.2 10071033
15:00+4wsw477269 0.8 10061226
18:00+3wsw478781 0.9 1006756
21:00+1w3997100 1.7 1006469